Home   Weather   Thessaloniki   Past weeks

Flag for Greece Past Weather in Thessaloniki, Greece — Yesterday and Last 2 Weeks

Now
48 °F

Drizzle. Fog.


Feels Like: 47 °F
Forecast: 37 / 48 °F
Wind: 3 mph from North

Location: Thessaloniki Airport

Current Time: Dec 4, 2016 at 4:19:38 pm

Latest Report: Dec 4, 2016 at 3:50 pm


Visibility: 2 mi

Pressure: 30.36 "Hg

Humidity: 94%

Dew Point: 46 °F

Location of ThessalonikiLocation

Past Weather in Thessaloniki — Graph

°F

Thessaloniki Temperature Yesterday

Maximum temperature yesterday: 55 °F (at 1:20 pm)
Minimum temperature yesterday: 37 °F (at 12:20 am)
Average temperature yesterday: 50 °F

High & Low Weather Summary for the Past Weeks

 TemperatureHumidityPressure
High61 °F (Nov 20, 3:50 pm)100% (Nov 20, 3:20 am)30.36 "Hg (Nov 20, 3:20 am)
Low32 °F (Dec 1, 1:50 am)30% (Dec 3, 4:50 pm)29.77 "Hg (Nov 28, 2:20 pm)
Average48 °F74%30.15 "Hg
* Reported Nov 19 2:20 pm — Dec 4 2:50 pm, Thessaloniki, Weather by CustomWeather, © 2016

Note: Actual official high and low records may vary slightly from our data, if they occured in-between our weather recording intervals... More about our weather records

Advertising

Thessaloniki Weather History for the Previous 24 Hours

Scroll right to see more
 ConditionsComfort  
Time TempWeatherWind HumidityBarometerVisibility
2:50 pm
Sun, Dec 4
48 °FFog.5 mph94%30.36 "Hg3 mi
2:20 pm48 °FRain. Fog.5 mph94%30.36 "Hg3 mi
1:50 pm48 °FDrizzle. Fog.3 mph94%30.36 "Hg1 mi
1:20 pm48 °FDrizzle. Fog.5 mph94%30.36 "Hg1 mi
12:50 pm48 °FRain. Cloudy.7 mph94%30.36 "Hg1 mi
12:20 pm48 °FFog.3 mph94%30.36 "Hg3 mi
11:50 am48 °FDrizzle. Fog.3 mph94%30.36 "Hg3 mi
11:20 am48 °FDrizzle. Partly sunny.3 mph94%30.36 "Hg4 mi
10:50 am48 °FLight rain. Partly sunny.3 mph87%30.36 "Hg4 mi
10:20 am48 °FDrizzle. Partly sunny.3 mph87%30.36 "Hg4 mi
9:50 am48 °FDrizzle. Partly sunny.3 mph82%30.36 "HgN/A
9:20 am48 °FDrizzle. Partly sunny.5 mph82%30.36 "HgN/A
8:50 am48 °FPartly sunny.5 mph82%30.33 "HgN/A
8:20 am48 °FDrizzle. Partly sunny.5 mph82%30.33 "HgN/A
7:50 am48 °FPartly sunny.3 mph71%30.33 "HgN/A
7:20 am48 °FPassing clouds.3 mph71%30.33 "HgN/A
6:50 am46 °FPassing clouds.No wind71%30.30 "HgN/A
6:20 am46 °FPassing clouds.3 mph71%30.30 "HgN/A
5:50 am46 °FPassing clouds.3 mph71%30.30 "HgN/A
5:20 am46 °FPassing clouds.3 mph71%30.30 "HgN/A
4:50 am46 °FPassing clouds.No wind71%30.30 "HgN/A
4:20 am45 °FPassing clouds.No wind71%30.27 "HgN/A
3:50 am45 °FPassing clouds.No wind76%30.30 "HgN/A
3:20 am45 °FPassing clouds.No wind71%30.27 "HgN/A
2:50 am45 °FPassing clouds.No wind71%30.27 "HgN/A
2:20 am46 °FPassing clouds.No wind66%30.27 "HgN/A
1:50 am45 °FPassing clouds.3 mph71%30.27 "HgN/A
12:50 am46 °FPassing clouds.3 mph66%30.27 "HgN/A
12:20 am46 °FPassing clouds.3 mph62%30.27 "HgN/A
11:50 pm
Sat, Dec 3
46 °FPassing clouds.3 mph62%30.27 "HgN/A
11:20 pm45 °FPassing clouds.3 mph66%30.27 "HgN/A
10:50 pm45 °FPassing clouds.3 mph66%30.27 "HgN/A
10:20 pm46 °FPassing clouds.No wind57%30.27 "HgN/A
9:50 pm48 °FPassing clouds.No wind50%30.27 "HgN/A
9:20 pm48 °FPassing clouds.3 mph54%30.24 "HgN/A
8:50 pm46 °FPassing clouds.6 mph57%30.24 "HgN/A
8:20 pm46 °FPassing clouds.5 mph53%30.24 "HgN/A
7:50 pm46 °FPassing clouds.3 mph50%30.24 "HgN/A
7:20 pm46 °FPassing clouds.2 mph53%30.21 "HgN/A
6:50 pm48 °FPassing clouds.No wind46%30.21 "HgN/A
6:20 pm52 °FPassing clouds.2 mph41%30.21 "HgN/A
5:50 pm54 °FPassing clouds.6 mph35%30.21 "HgN/A
5:20 pm54 °FPassing clouds.8 mph35%30.18 "HgN/A
4:50 pm54 °FPassing clouds.8 mph30%30.18 "HgN/A
4:20 pm55 °FPassing clouds.9 mph31%30.18 "HgN/A
Weather by CustomWeather, © 2016

See weather overviewHow to use our weather pages